Location: Launois
(49.6535°N, 4.5395°E)
Time: 02:51:14
(UTC+00:00)

Cosmos 1408 - Pass Details

Date: 23 May 2024
Orbit: 361 x 376 km, 82.6° (Epoch: 21 June)

Event Time Altitude Azimuth Distance (km) Brightness Sun altitude
Rises 13:28:38 0° 341° (NNW) 2,232 5.8 53.6°
Reaches altitude 10° 13:30:45 10° 330° (NNW) 1,381 4.9 53.4°
Maximum altitude 13:33:24 30° 267° (W) 708 4.4 53.1°
Drops below altitude 10° 13:36:04 10° 204° (SSW) 1,382 5.6 52.7°
Enters shadow 14:07:59 -66° 171° (S) 12,064 9.2 48.5°
Exits shadow 14:43:16 -42° 7° (N) 9,075 8.5 43.4°
